Flag for U.S.A. Weather past 2 weeks in Chula Vista, California, U.S.A.

Now
58 °F

Mostly cloudy.


Feels Like: 58 °F
Forecast: 58 / 65 °F
Wind: No wind

Location: Brown Field Municipal Airport

Current Time: May 23, 2015 at 8:06:00 AM

Latest Report: May 23, 2015 at 6:53 AM


Visibility: 9 mi

Pressure: 30.08 "Hg

Humidity: 93%

Dew point: 56 °F

Location of Chula VistaLocation

Historic Weather in Chula Vista — Graph

°F

Chula Vista temperature yesterday

Maximum temperature yesterday: 67 °F (at 1:53 PM)
Minimum temperature yesterday: 57 °F (at 4:53 AM)
Average temperature yesterday: 61 °F

Past Weeks' High & Low Weather Summary

 TemperatureHumidityPressure
High72 °F (May 11, 2:53 PM)100% (May 11, 4:53 AM)30.09 "Hg (May 11, 4:53 AM)
Low51 °F (May 8, 7:53 AM)47% (May 14, 11:53 AM)29.80 "Hg (May 15, 2:53 PM)
Average60 °F76%29.97 "Hg
* Reported May 8 6:53 AM — May 23 6:53 AM, Chula Vista, Weather by CustomWeather, © 2015

Note: Actual official high and low records may vary slightly from our data, if they occured in-between our weather recording intervals... More about our weather records

Advertising

Chula Vista weather history for previous 24 hours

 ConditionsComfort  
Time TempWeatherWind HumidityBarometerVisibility
6:53 AM
Sat, May 23
58 °FMostly cloudy.No wind93%30.08 "Hg9 mi
5:53 AM57 °FPassing clouds.3 mph93%30.07 "Hg10 mi
4:53 AM58 °FMostly cloudy.No wind93%30.06 "Hg10 mi
3:53 AM57 °FMostly cloudy.No wind96%30.07 "Hg10 mi
3:03 AM57 °FLight rain. Fog.3 mph93%30.08 "Hg4 mi
1:53 AM58 °FMostly cloudy.No wind93%30.07 "Hg10 mi
1:04 AM58 °FPassing clouds.No wind93%30.08 "Hg10 mi
12:53 AM58 °FPassing clouds.3 mph90%30.07 "Hg10 mi
11:53 PM
Fri, May 22
58 °FMostly cloudy.No wind93%30.08 "Hg10 mi
10:53 PM59 °FLight rain. Mostly cloudy.8 mph84%30.09 "Hg9 mi
9:53 PM59 °FMostly cloudy.6 mph81%30.09 "Hg10 mi
8:53 PM59 °FPassing clouds.8 mph81%30.07 "Hg10 mi
7:53 PM60 °FMostly cloudy.6 mph75%30.06 "Hg10 mi
6:53 PM62 °FScattered clouds.8 mph70%30.05 "Hg10 mi
5:53 PM63 °FMostly cloudy.10 mph65%30.04 "Hg10 mi
4:53 PM63 °FBroken clouds.10 mph65%30.03 "Hg10 mi
3:53 PM67 °FBroken clouds.15 mph57%30.02 "Hg10 mi
2:53 PM65 °FBroken clouds.10 mph59%30.04 "Hg10 mi
1:53 PM67 °FPassing clouds.14 mph55%30.04 "Hg10 mi
12:53 PM65 °FPartly sunny.14 mph56%30.04 "Hg10 mi
11:53 AM65 °FScattered clouds.10 mph54%30.05 "Hg10 mi
10:53 AM64 °FPartly sunny.8 mph56%30.04 "Hg10 mi
9:53 AM64 °FPassing clouds.12 mph61%30.04 "Hg10 mi
8:53 AM62 °FPassing clouds.9 mph67%30.03 "Hg10 mi
Weather by CustomWeather, © 2015

See weather overviewHow to use our weather pages